Reading, PA

6:32 PM EST on February 08, 2016 (GMT -0500)
Reading Regional-Spaatz

Weather History for KRDG - November, 2012

Change the Weather History Date:

Sunday, November 4, 2012

  Actual Average Record
Temperature  
Mean Temperature 41 °F 48 °F  
Max Temperature 46 °F 58 °F 78 °F (1982)
Min Temperature 35 °F 38 °F 23 °F (2006)
Degree Days  
Heating Degree Days 24 17  
Month to date heating degree days 83 66  
Since 1 July heating degree days 420 504  
Cooling Degree Days 0 0  
Month to date cooling degree days 0 0  
Year to date cooling degree days 1281 896  
Moisture  
Dew Point 27 °F    
Average Humidity 56    
Maximum Humidity 59    
Minimum Humidity 53    
Precipitation  
Precipitation 0.00 in 0.11 in 1.40 in (1947)
Month to date precipitation 0.00 0.44  
Year to date precipitation 35.02 36.96  
Sea Level Pressure  
Sea Level Pressure 30.02 in    
Wind  
Wind Speed 9 mph (NW)    
Max Wind Speed 12 mph    
Max Gust Speed 21 mph    
Visibility 10 miles    
Events      
T = Trace of Precipitation, MM = Missing Value Source: NWS Daily Summary

Daily Weather History Graph

Daily Weather History Graph

Search for Another Location

Airport or City:

Trip Planner

Search our weather history database for the weather conditions in past years. The results will help you decide how hot, cold, wet, or windy it might be!

Date:

Astronomy

Nov. 04, 2012 Rise Set
Actual Time 6:37 AM EST 4:56 PM EST
Civil Twilight 6:09 AM EST 5:25 PM EST
Nautical Twilight 5:36 AM EST 5:57 PM EST
Astronomical Twilight 5:04 AM EST 6:29 PM EST
Moon 9:32 PM EST (11/4) 11:19 AM EST (11/4)
Length of Visible Light 11h 16m
Length of Day
10h 19m
Waning Gibbous, 72% of the Moon is Illuminated
Nov 4
Waning Gibbous
Nov 6
Last Quarter
Nov 13
New
Nov 20
First Quarter
Nov 28
Full

Hourly Weather History & Observations

Time (EST) Temp. Windchill Dew Point Humidity Pressure Visibility Wind Dir Wind Speed Gust Speed Precip Events Conditions
12:54 AM - - - N/A% 30.03 in - North - - N/A   Unknown
1:54 AM - - - N/A% 30.03 in - North - - N/A   Unknown
1:54 AM - - - N/A% 30.02 in - North - - N/A   Unknown
2:54 AM - - - N/A% 30.01 in - North - - N/A   Unknown
3:54 AM - - - N/A% 30.01 in - North - - N/A   Unknown
4:54 AM - - - N/A% 30.02 in - North - - N/A   Unknown
5:53 AM 41.0 °F 35.8 °F 26.6 °F 57% 30.03 in 10.0 mi NNW 8.1 mph - N/A   Mostly Cloudy
5:54 AM - - - N/A% 30.01 in - North - - N/A   Unknown
6:50 AM 39.2 °F 32.0 °F 26.6 °F 61% 30.02 in 10.0 mi NNW 11.5 mph 20.7 mph N/A   Mostly Cloudy
7:54 AM - - - N/A% 30.04 in - North - - N/A   Unknown
8:03 AM 41.0 °F 33.9 °F 28.4 °F 61% 30.04 in 10.0 mi NNW 12.7 mph - N/A   Scattered Clouds
8:54 AM - - - N/A% 30.04 in - North - - N/A   Unknown
8:55 AM 42.8 °F 36.2 °F 28.4 °F 57% 30.04 in 10.0 mi NW 12.7 mph - N/A   Mostly Cloudy
9:49 AM 44.6 °F 39.7 °F 28.4 °F 53% 30.04 in 10.0 mi NW 9.2 mph 20.7 mph N/A   Mostly Cloudy
9:54 AM - - - N/A% 30.03 in - North - - N/A   Unknown
10:54 AM - - - N/A% 30.03 in - North - - N/A   Unknown
10:55 AM 44.6 °F 38.1 °F 28.4 °F 53% 30.03 in 10.0 mi NNW 13.8 mph - N/A   Mostly Cloudy
11:54 AM - - - N/A% 30.01 in - North - - N/A   Unknown
12:54 PM - - - N/A% 30.01 in - North - - N/A   Unknown
1:00 PM 42.8 °F 36.2 °F 28.4 °F 57% 30.01 in 10.0 mi NW 12.7 mph - N/A   Overcast
1:54 PM - - - N/A% 30.01 in - North - - N/A   Unknown
2:54 PM - - - N/A% 30.01 in - North - - N/A   Unknown
2:55 PM 42.8 °F 35.4 °F 28.4 °F 57% 30.00 in 10.0 mi NNW 15.0 mph - N/A   Overcast
3:54 PM - - - N/A% 30.01 in - North - - N/A   Unknown
3:55 PM 41.0 °F 34.7 °F 26.6 °F 57% 30.00 in 10.0 mi WSW 10.4 mph 18.4 mph N/A   Overcast
4:50 PM 41.0 °F 35.2 °F 26.6 °F 57% 30.01 in 10.0 mi NNW 9.2 mph - N/A   Overcast
4:54 PM - - - N/A% 30.01 in - North - - N/A   Unknown
5:54 PM - - - N/A% 30.02 in - North - - N/A   Unknown
5:55 PM 41.0 °F 34.7 °F 26.6 °F 57% 30.03 in 10.0 mi NW 10.4 mph - N/A   Overcast
6:50 PM 41.0 °F 35.2 °F 26.6 °F 57% 30.03 in 10.0 mi NW 9.2 mph - N/A   Overcast
6:54 PM - - - N/A% 30.03 in - North - - N/A   Unknown
7:54 PM - - - N/A% 30.03 in - North - - N/A   Unknown
8:54 PM - - - N/A% 30.04 in - North - - N/A   Unknown
9:54 PM - - - N/A% 30.04 in - North - - N/A   Unknown
10:54 PM - - - N/A% 30.03 in - North - - N/A   Unknown